Language: 


Des rapports , des résumés tant et plus, au choix de chacun....


Données Historiques de Météogheer
Journalier Rapport pour Janvier 30, 2018 Unitée:  Impériale    Métrique   Les deux
Suivant Jour »
Journalier Hebdomadaire Mensuel Annuel Sur mesure
  Max: Min: Moyenne:
Température: 52.3 °F 32.2 °F 42.3 °F
Point de rosée: 50 °F 32 °F 41.2 °F
Humidité: 98% 78% 94%
Vent: 7.8mph 0mph 0.9mph
Rafales: 9.4mph - -
Vent- - SSW
Pression: 30.4 in 30.1 in -
Pluie: 0.01 in    
Historical Graphs
 
 
Données tabulaires pour Janvier 30, 2018
Heure Température Point de rosée Pression Vent Vent Rafales Humidité Pluie Taux (Horaire) Conditions
00:03 39.7 °F 39.2 °F 30.4 in Calm   1.3 mph 97% 0 in
00:08 40.3 °F 41 °F 30.4 in Calm   3.4 mph 98% 0 in
00:13 40.6 °F 41 °F 30.4 in Calm   3.4 mph 98% 0 in
00:18 40.6 °F 41 °F 30.4 in Calm   2.2 mph 98% 0 in
00:23 40.6 °F 41 °F 30.4 in Calm   1.6 mph 98% 0 in
00:28 40.3 °F 41 °F 30.4 in Calm   1.1 mph 98% 0 in
00:33 40.3 °F 41 °F 30.4 in Calm     98% 0 in
00:38 40.3 °F 41 °F 30.4 in Calm     98% 0 in
00:43 39.9 °F 39.2 °F 30.4 in Calm     98% 0 in
00:48 39.4 °F 39.2 °F 30.4 in Calm     98% 0 in
00:53 39.2 °F 39.2 °F 30.4 in Calm     98% 0 in
00:58 39.2 °F 39.2 °F 30.4 in Calm     98% 0 in
01:03 39.2 °F 39.2 °F 30.4 in Calm     98% 0 in
01:08 39.2 °F 39.2 °F 30.4 in Calm   2.2 mph 98% 0 in
01:13 39.2 °F 39.2 °F 30.4 in Calm   2.7 mph 98% 0 in
01:18 39.2 °F 39.2 °F 30.4 in Calm   2.7 mph 98% 0 in
01:23 39.2 °F 39.2 °F 30.4 in WNW 1.3 mph 1.3 mph 98% 0 in
01:28 39.4 °F 39.2 °F 30.4 in Calm   2.9 mph 98% 0 in
01:33 39.2 °F 39.2 °F 30.4 in Calm   2.9 mph 98% 0 in
01:38 38.8 °F 39.2 °F 30.4 in Calm   1.1 mph 98% 0 in
01:43 38.5 °F 39.2 °F 30.4 in Calm   0.9 mph 98% 0 in
01:48 37.9 °F 37.4 °F 30.4 in Calm     98% 0 in
01:53 37.9 °F 37.4 °F 30.4 in Calm   3.8 mph 98% 0 in
01:58 37.9 °F 37.4 °F 30.4 in Calm   3.8 mph 98% 0 in
02:03 37.9 °F 37.4 °F 30.4 in Calm   3.8 mph 98% 0 in
02:08 37.9 °F 37.4 °F 30.4 in Calm   2.9 mph 98% 0 in
02:13 37.8 °F 37.4 °F 30.4 in Calm   0.9 mph 98% 0 in
02:19 37.9 °F 37.4 °F 30.4 in Calm   2.7 mph 98% 0 in
02:24 38.1 °F 37.4 °F 30.4 in Calm   3.1 mph 98% 0 in
02:29 37.9 °F 37.4 °F 30.4 in Calm   3.6 mph 98% 0 in
02:34 37.9 °F 37.4 °F 30.4 in Calm   3.6 mph 98% 0 in
02:39 37.6 °F 37.4 °F 30.4 in Calm   2 mph 98% 0 in
02:44 37 °F 37.4 °F 30.4 in Calm     98% 0 in
02:49 36.9 °F 37.4 °F 30.4 in Calm     98% 0 in
02:54 36.7 °F 37.4 °F 30.4 in Calm     98% 0 in
02:59 36.7 °F 37.4 °F 30.4 in Calm     98% 0 in
03:04 37 °F 37.4 °F 30.4 in Calm   3.1 mph 98% 0 in
03:09 36.9 °F 37.4 °F 30.4 in West 2.2 mph 4.3 mph 98% 0 in
03:14 36.7 °F 37.4 °F 30.4 in NW 2 mph 4.3 mph 98% 0 in
03:15 36.7 °F 37.4 °F 30.4 in WNW 3.1 mph 4.3 mph 98% 0 in
03:20 36.7 °F 37.4 °F 30.4 in Calm   3.4 mph 98% 0 in
03:25 36.9 °F 37.4 °F 30.4 in Calm   2.7 mph 98% 0 in
03:30 37 °F 37.4 °F 30.4 in Calm     98% 0 in
03:35 36.3 °F 37.4 °F 30.4 in Calm     98% 0 in
03:40 36.1 °F 37.4 °F 30.4 in Calm     98% 0 in
03:45 35.6 °F 35.6 °F 30.4 in Calm     98% 0 in
03:50 35.2 °F 35.6 °F 30.4 in Calm     98% 0 in
03:55 35.1 °F 35.6 °F 30.4 in Calm     98% 0 in
04:01 34.7 °F 35.6 °F 30.4 in Calm   2.2 mph 98% 0 in
04:06 34.5 °F 33.8 °F 30.4 in Calm   2.2 mph 98% 0 in
04:11 34.3 °F 33.8 °F 30.4 in Calm     98% 0 in
04:16 34.3 °F 33.8 °F 30.4 in Calm     98% 0 in
04:21 34.3 °F 33.8 °F 30.4 in Calm     98% 0 in
04:26 34.5 °F 33.8 °F 30.4 in Calm     98% 0 in
04:31 34.5 °F 33.8 °F 30.4 in Calm     98% 0 in
04:36 34.3 °F 33.8 °F 30.4 in Calm     98% 0 in
04:41 34 °F 33.8 °F 30.4 in Calm     98% 0 in
04:46 33.8 °F 33.8 °F 30.4 in Calm     98% 0 in
04:51 33.8 °F 33.8 °F 30.4 in Calm     98% 0 in
04:56 34 °F 33.8 °F 30.4 in Calm   2.7 mph 98% 0 in
05:01 34.9 °F 35.6 °F 30.4 in Calm   2.7 mph 98% 0 in
05:06 34.9 °F 35.6 °F 30.4 in Calm     98% 0 in
05:11 34.9 °F 35.6 °F 30.4 in Calm     98% 0 in
05:16 34.5 °F 33.8 °F 30.4 in Calm     98% 0 in
05:21 34.2 °F 33.8 °F 30.4 in Calm     98% 0 in
05:26 34 °F 33.8 °F 30.4 in Calm     98% 0 in
05:31 34.2 °F 33.8 °F 30.4 in Calm     98% 0 in
05:36 34.2 °F 33.8 °F 30.4 in Calm     98% 0 in
05:41 33.8 °F 33.8 °F 30.4 in Calm     98% 0 in
05:46 33.6 °F 33.8 °F 30.4 in Calm     98% 0 in
05:51 34 °F 33.8 °F 30.4 in Calm   2.9 mph 98% 0 in
05:56 33.8 °F 33.8 °F 30.4 in Calm   2.9 mph 98% 0 in
06:01 33.8 °F 33.8 °F 30.4 in Calm     98% 0 in
06:06 34 °F 33.8 °F 30.4 in WNW 1.1 mph 2.5 mph 98% 0 in
06:11 34.3 °F 33.8 °F 30.4 in Calm   2.5 mph 98% 0 in
06:16 34.5 °F 33.8 °F 30.4 in Calm   2.2 mph 98% 0 in
06:21 34.5 °F 33.8 °F 30.4 in Calm   2.7 mph 98% 0 in
06:27 34.7 °F 35.6 °F 30.4 in Calm   2.7 mph 98% 0 in
06:32 34.7 °F 35.6 °F 30.4 in Calm   3.1 mph 98% 0 in
06:37 34.3 °F 33.8 °F 30.4 in Calm   3.1 mph 98% 0 in
06:42 33.8 °F 33.8 °F 30.4 in Calm     98% 0 in
06:47 33.6 °F 33.8 °F 30.4 in Calm     98% 0 in
06:52 33.3 °F 33.8 °F 30.4 in Calm     98% 0 in
06:57 32.9 °F 33.8 °F 30.4 in Calm     98% 0 in
07:02 32.7 °F 33.8 °F 30.4 in Calm     98% 0 in
07:07 32.7 °F 33.8 °F 30.4 in Calm     98% 0 in
07:12 33.1 °F 33.8 °F 30.4 in West 2.7 mph 3.1 mph 98% 0 in
07:17 33.3 °F 33.8 °F 30.4 in Calm   3.1 mph 98% 0 in
07:22 33.1 °F 33.8 °F 30.4 in Calm   2.7 mph 98% 0 in
07:27 32.7 °F 33.8 °F 30.4 in Calm     98% 0 in
07:32 32.7 °F 33.8 °F 30.4 in Calm     98% 0 in
07:37 32.5 °F 33.8 °F 30.4 in Calm     98% 0 in
07:42 32.4 °F 32 °F 30.4 in Calm     98% 0 in
07:47 32.2 °F 32 °F 30.4 in Calm     98% 0 in
07:52 32.2 °F 32 °F 30.4 in Calm     98% 0 in
07:57 32.2 °F 32 °F 30.4 in Calm     98% 0 in
08:02 32.2 °F 32 °F 30.4 in Calm   3.4 mph 98% 0 in
08:07 32.4 °F 32 °F 30.4 in Calm   3.4 mph 98% 0 in
08:12 32.2 °F 32 °F 30.4 in Calm   0.9 mph 98% 0 in
08:17 32.2 °F 32 °F 30.4 in Calm     98% 0 in
08:22 32.4 °F 32 °F 30.4 in Calm     98% 0 in
08:27 32.4 °F 32 °F 30.4 in Calm     98% 0 in
08:32 32.7 °F 33.8 °F 30.4 in Calm     98% 0 in
08:37 32.7 °F 33.8 °F 30.4 in Calm     98% 0 in
08:42 32.7 °F 33.8 °F 30.4 in Calm   2 mph 98% 0 in
08:47 32.9 °F 33.8 °F 30.4 in Calm   2 mph 98% 0 in
08:52 33.1 °F 33.8 °F 30.4 in Calm   2 mph 98% 0 in
08:57 33.4 °F 33.8 °F 30.4 in Calm   2 mph 98% 0 in
09:03 33.6 °F 33.8 °F 30.4 in Calm     98% 0 in
09:08 33.6 °F 33.8 °F 30.4 in Calm     98% 0 in
09:13 33.6 °F 33.8 °F 30.4 in Calm   0.9 mph 98% 0 in
09:18 34 °F 33.8 °F 30.4 in Calm   2.2 mph 98% 0 in
09:23 34.2 °F 33.8 °F 30.4 in Calm   2.2 mph 98% 0 in
09:28 34.2 °F 33.8 °F 30.4 in Calm     98% 0 in
09:33 34.3 °F 33.8 °F 30.4 in Calm     98% 0 in
09:38 34.5 °F 33.8 °F 30.4 in Calm   0.9 mph 98% 0 in
09:43 34.9 °F 35.6 °F 30.4 in Calm   0.9 mph 98% 0 in
09:48 35.2 °F 35.6 °F 30.4 in Calm   0.9 mph 98% 0 in
09:53 35.6 °F 35.6 °F 30.4 in Calm     98% 0 in
09:58 35.8 °F 35.6 °F 30.4 in Calm   1.6 mph 98% 0 in
10:03 36.1 °F 37.4 °F 30.4 in Calm   1.6 mph 98% 0 in
10:08 36.7 °F 37.4 °F 30.4 in Calm     98% 0 in
10:13 37 °F 37.4 °F 30.4 in Calm   4.3 mph 98% 0 in
10:18 37 °F 37.4 °F 30.4 in Calm   4.3 mph 98% 0 in
10:23 37.6 °F 37.4 °F 30.4 in Calm   0.9 mph 98% 0 in
10:28 38.1 °F 37.4 °F 30.4 in Calm     98% 0 in
10:33 38.5 °F 39.2 °F 30.4 in Calm     98% 0 in
10:38 38.8 °F 39.2 °F 30.4 in Calm     98% 0 in
10:44 39.2 °F 39.2 °F 30.4 in Calm     98% 0 in
10:49 39.4 °F 39.2 °F 30.4 in Calm   2.7 mph 98% 0.01 in
10:54 39.7 °F 39.2 °F 30.4 in Calm   2.7 mph 98% 0.01 in
10:59 40.5 °F 41 °F 30.4 in Calm     98% 0.01 in
11:04 40.8 °F 41 °F 30.4 in Calm     98% 0.01 in
11:09 41.5 °F 42.8 °F 30.4 in Calm     98% 0.01 in
11:14 41.7 °F 42.8 °F 30.4 in Calm   1.1 mph 98% 0.01 in
11:19 42.4 °F 42.8 °F 30.4 in Calm   1.1 mph 98% 0.01 in
11:24 43 °F 42.8 °F 30.4 in Calm   1.1 mph 98% 0.01 in
11:29 43.7 °F 44.6 °F 30.4 in Calm   1.1 mph 98% 0.01 in
11:34 44.6 °F 44.6 °F 30.4 in Calm     98% 0.01 in
11:39 45 °F 44.6 °F 30.4 in Calm     98% 0.01 in
11:44 45.3 °F 44.6 °F 30.4 in Calm     98% 0.01 in
11:49 45.7 °F 46.4 °F 30.4 in Calm   0.9 mph 98% 0 in
11:54 46.6 °F 46.4 °F 30.4 in Calm   0.9 mph 98% 0 in
11:59 46.9 °F 48.2 °F 30.4 in Calm     98% 0 in
12:04 47.3 °F 48.2 °F 30.4 in Calm     98% 0 in
12:09 47.7 °F 48.2 °F 30.4 in Calm   0.9 mph 98% 0 in
12:10 47.7 °F 48.2 °F 30.4 in Calm   0.9 mph 98% 0 in
12:15 48.2 °F 48.2 °F 30.4 in Calm   0.9 mph 98% 0 in
12:20 48.6 °F 48.2 °F 30.4 in Calm     98% 0 in
12:26 48.9 °F 48.2 °F 30.4 in Calm     98% 0 in
12:31 49.3 °F 50 °F 30.4 in Calm   0.9 mph 98% 0 in
12:36 49.6 °F 50 °F 30.4 in SW 2.5 mph 4.9 mph 98% 0 in
12:41 49.8 °F 50 °F 30.4 in Calm   4.9 mph 98% 0 in
12:46 50.2 °F 50 °F 30.4 in Calm   4.3 mph 98% 0 in
12:51 50.5 °F 50 °F 30.4 in Calm   4.5 mph 97% 0 in
12:56 50.7 °F 50 °F 30.4 in Calm   4.5 mph 96% 0 in
13:01 51.1 °F 50 °F 30.4 in Calm   1.3 mph 95% 0 in
13:06 51.3 °F 50 °F 30.4 in SSW 2.9 mph 4 mph 94% 0 in
13:11 51.6 °F 50 °F 30.4 in SSW 3.1 mph 4 mph 93% 0 in
13:16 51.6 °F 50 °F 30.4 in SSE 5.8 mph 6.9 mph 92% 0 in
13:21 51.4 °F 48.2 °F 30.4 in Calm   6.9 mph 89% 0 in
13:26 51.4 °F 48.2 °F 30.4 in Calm   6 mph 87% 0 in
13:31 51.6 °F 48.2 °F 30.3 in SSW 0.9 mph 6 mph 85% 0 in
13:36 51.4 °F 48.2 °F 30.3 in Calm   4.9 mph 85% 0 in
13:41 50.9 °F 46.4 °F 30.3 in Calm   2.5 mph 84% 0 in
13:46 51.1 °F 46.4 °F 30.3 in Calm   2.9 mph 84% 0 in
13:51 51.6 °F 48.2 °F 30.3 in Calm   4.3 mph 84% 0 in
13:56 52 °F 48.2 °F 30.3 in Calm   4.3 mph 84% 0 in
14:01 52.3 °F 48.2 °F 30.3 in SSW 4 mph 4.9 mph 83% 0 in
14:06 51.8 °F 46.4 °F 30.3 in Calm   4.9 mph 82% 0 in
14:11 51.6 °F 46.4 °F 30.3 in Calm   3.6 mph 80% 0 in
14:16 51.1 °F 44.6 °F 30.3 in SSW 2 mph 5.4 mph 78% 0 in
14:21 50.9 °F 44.6 °F 30.3 in Calm   5.4 mph 79% 0 in
14:26 50.7 °F 44.6 °F 30.3 in Calm   3.8 mph 79% 0 in
14:31 50.4 °F 44.6 °F 30.3 in South 0.9 mph 5.6 mph 79% 0 in
14:36 50 °F 42.8 °F 30.3 in Calm   5.6 mph 78% 0 in
14:41 50 °F 42.8 °F 30.3 in Calm   6.3 mph 78% 0 in
14:46 49.8 °F 42.8 °F 30.3 in Calm   6.3 mph 78% 0 in
14:51 49.8 °F 42.8 °F 30.3 in Calm   3.6 mph 78% 0 in
14:56 49.6 °F 42.8 °F 30.3 in Calm   3.8 mph 78% 0 in
15:01 49.6 °F 42.8 °F 30.3 in Calm   4.9 mph 78% 0 in
15:06 49.5 °F 42.8 °F 30.3 in South 2.7 mph 4.9 mph 79% 0 in
15:12 49.3 °F 42.8 °F 30.3 in SSE 3.6 mph 5.8 mph 78% 0 in
15:17 49.3 °F 42.8 °F 30.3 in SSW 4.3 mph 5.8 mph 79% 0 in
15:22 49.3 °F 42.8 °F 30.3 in Calm   5.8 mph 79% 0 in
15:27 49.1 °F 42.8 °F 30.3 in South 3.6 mph 5.8 mph 79% 0 in
15:32 48.7 °F 42.8 °F 30.3 in SSW 3.1 mph 3.6 mph 80% 0 in
15:37 48.7 °F 42.8 °F 30.3 in Calm   3.6 mph 80% 0 in
15:42 48.9 °F 42.8 °F 30.3 in SSE 4.7 mph 4.7 mph 81% 0 in
15:47 50.5 °F 46.4 °F 30.2 in Calm   6 mph 82% 0 in
15:52 50.5 °F 44.6 °F 30.2 in Calm   6 mph 81% 0 in
15:57 50.4 °F 44.6 °F 30.2 in SSE 0.9 mph 5.8 mph 80% 0 in
16:02 50.4 °F 44.6 °F 30.3 in Calm   3.4 mph 80% 0 in
16:07 50.2 °F 44.6 °F 30.3 in Calm   2.5 mph 79% 0 in
16:12 49.8 °F 44.6 °F 30.3 in Calm     80% 0 in
16:17 49.6 °F 44.6 °F 30.3 in Calm     80% 0 in
16:22 49.5 °F 44.6 °F 30.3 in Calm     81% 0 in
16:27 49.3 °F 44.6 °F 30.3 in Calm   1.3 mph 81% 0 in
16:32 48.9 °F 42.8 °F 30.2 in Calm   1.6 mph 81% 0 in
16:37 48.9 °F 42.8 °F 30.2 in Calm   1.6 mph 81% 0 in
16:42 48.7 °F 44.6 °F 30.2 in Calm     82% 0 in
16:47 48.7 °F 44.6 °F 30.3 in Calm     82% 0 in
16:52 48.6 °F 44.6 °F 30.3 in Calm     83% 0 in
16:57 48.6 °F 44.6 °F 30.3 in Calm     83% 0 in
17:02 48.4 °F 42.8 °F 30.3 in Calm   1.3 mph 83% 0 in
17:07 48.2 °F 42.8 °F 30.3 in Calm   1.3 mph 83% 0 in
17:12 48.2 °F 44.6 °F 30.3 in Calm   0.9 mph 84% 0 in
17:17 48 °F 44.6 °F 30.2 in Calm   2.2 mph 84% 0 in
17:22 47.8 °F 44.6 °F 30.2 in Calm   2.2 mph 84% 0 in
17:27 47.7 °F 44.6 °F 30.2 in Calm     85% 0 in
17:32 47.5 °F 44.6 °F 30.3 in Calm     85% 0 in
17:37 47.5 °F 44.6 °F 30.3 in Calm     85% 0 in
17:42 47.3 °F 44.6 °F 30.3 in Calm     85% 0 in
17:47 47.3 °F 44.6 °F 30.2 in Calm     86% 0 in
17:53 47.1 °F 42.8 °F 30.2 in Calm     86% 0 in
17:58 46.9 °F 42.8 °F 30.2 in Calm     86% 0 in
18:03 46.9 °F 42.8 °F 30.2 in Calm   0.9 mph 86% 0 in
18:08 46.9 °F 44.6 °F 30.2 in Calm   0.9 mph 87% 0 in
18:13 46.9 °F 44.6 °F 30.2 in Calm   3.8 mph 87% 0 in
18:18 46.9 °F 44.6 °F 30.2 in Calm   4.3 mph 87% 0 in
18:23 46.9 °F 44.6 °F 30.2 in Calm   4.3 mph 88% 0 in
18:28 46.9 °F 44.6 °F 30.2 in Calm   3.1 mph 88% 0 in
18:33 46.9 °F 44.6 °F 30.2 in Calm   4.3 mph 88% 0 in
18:38 46.9 °F 44.6 °F 30.2 in Calm   4.3 mph 89% 0 in
18:43 46.8 °F 44.6 °F 30.2 in South 1.3 mph 2.9 mph 89% 0 in
18:48 46.6 °F 44.6 °F 30.2 in Calm   2.9 mph 89% 0 in
18:53 46.2 °F 42.8 °F 30.2 in Calm   2.5 mph 90% 0 in
18:58 45.9 °F 42.8 °F 30.2 in Calm   4.3 mph 90% 0 in
19:03 45.5 °F 42.8 °F 30.2 in Calm   4.3 mph 91% 0 in
19:08 45.5 °F 42.8 °F 30.2 in South 4.3 mph 4.7 mph 91% 0 in
19:13 45.3 °F 42.8 °F 30.2 in Calm   4.7 mph 92% 0 in
19:18 45.1 °F 42.8 °F 30.2 in Calm   4.3 mph 92% 0 in
19:23 45 °F 42.8 °F 30.2 in South 3.4 mph 4.9 mph 93% 0 in
19:28 44.8 °F 42.8 °F 30.2 in Calm   4.9 mph 93% 0 in
19:33 44.8 °F 42.8 °F 30.2 in Calm   4.7 mph 94% 0 in
19:38 44.8 °F 42.8 °F 30.2 in Calm   4.7 mph 94% 0 in
19:44 44.6 °F 42.8 °F 30.2 in Calm   4.5 mph 95% 0 in
19:49 44.4 °F 42.8 °F 30.2 in South 3.1 mph 3.8 mph 95% 0 in
19:54 44.4 °F 44.6 °F 30.2 in Calm   3.8 mph 96% 0 in
19:59 44.6 °F 44.6 °F 30.2 in SW 3.1 mph 4.9 mph 96% 0 in
20:04 44.8 °F 44.6 °F 30.2 in SSW 3.1 mph 4.9 mph 96% 0 in
20:09 45 °F 44.6 °F 30.2 in SSW 2 mph 5.4 mph 97% 0 in
20:14 45.1 °F 44.6 °F 30.2 in Calm   6 mph 97% 0 in
20:19 45.3 °F 44.6 °F 30.2 in Calm   6 mph 98% 0 in
20:24 45.5 °F 46.4 °F 30.2 in SSW 4 mph 4.9 mph 98% 0 in
20:29 45.7 °F 46.4 °F 30.2 in WSW 4.3 mph 5.4 mph 98% 0 in
20:34 45.9 °F 46.4 °F 30.2 in SSW 3.6 mph 5.4 mph 98% 0 in
20:39 46 °F 46.4 °F 30.2 in SW 3.8 mph 5.8 mph 98% 0 in
20:44 46 °F 46.4 °F 30.2 in SW 3.6 mph 5.8 mph 98% 0 in
20:49 46.2 °F 46.4 °F 30.2 in SSW 2.7 mph 5.6 mph 98% 0 in
20:54 46.2 °F 46.4 °F 30.2 in SW 4.9 mph 6.5 mph 98% 0 in
20:59 46.4 °F 46.4 °F 30.2 in SSW 5.4 mph 6.5 mph 98% 0 in
21:04 46.6 °F 46.4 °F 30.2 in SW 5.6 mph 7.8 mph 98% 0 in
21:09 46.6 °F 46.4 °F 30.2 in SW 4.3 mph 7.8 mph 98% 0 in
21:14 46.8 °F 46.4 °F 30.2 in WSW 5.6 mph 7.2 mph 98% 0 in
21:19 46.8 °F 46.4 °F 30.2 in WSW 5.8 mph 8.1 mph 98% 0 in
21:24 46.9 °F 48.2 °F 30.2 in SSW 5.4 mph 8.1 mph 98% 0 in
21:29 46.9 °F 48.2 °F 30.2 in SW 3.8 mph 8.1 mph 98% 0 in
21:34 46.9 °F 48.2 °F 30.2 in SSW 6.3 mph 8.1 mph 98% 0 in
21:39 46.9 °F 48.2 °F 30.2 in Calm   7.8 mph 98% 0 in
21:44 46.9 °F 48.2 °F 30.2 in SW 4.9 mph 7.4 mph 98% 0 in
21:49 46.9 °F 48.2 °F 30.2 in SW 4.9 mph 7.6 mph 98% 0 in
21:54 46.9 °F 48.2 °F 30.2 in Calm   7.6 mph 98% 0 in
21:59 46.9 °F 48.2 °F 30.2 in SSW 4.9 mph 5.8 mph 98% 0 in
22:04 46.9 °F 48.2 °F 30.2 in Calm   5.6 mph 98% 0 in
22:09 46.9 °F 48.2 °F 30.2 in SW 4.3 mph 5.4 mph 98% 0 in
22:15 46.9 °F 48.2 °F 30.1 in SSW 6.3 mph 6.7 mph 98% 0 in
22:20 46.9 °F 48.2 °F 30.1 in SSW 5.4 mph 7.4 mph 98% 0 in
22:25 46.9 °F 48.2 °F 30.1 in SSW 5.4 mph 7.4 mph 98% 0 in
22:30 46.9 °F 48.2 °F 30.1 in SW 5.6 mph 6.9 mph 98% 0 in
22:35 46.9 °F 48.2 °F 30.1 in SSW 5.6 mph 7.6 mph 98% 0 in
22:40 47.1 °F 48.2 °F 30.1 in SSW 4 mph 7.6 mph 98% 0 in
22:45 47.1 °F 48.2 °F 30.1 in SW 5.6 mph 7.6 mph 98% 0 in
22:50 47.1 °F 48.2 °F 30.1 in South 1.3 mph 7.6 mph 98% 0 in
22:55 47.1 °F 48.2 °F 30.1 in Calm   6 mph 98% 0 in
23:00 47.1 °F 48.2 °F 30.1 in SSW 4.3 mph 6.3 mph 98% 0 in
23:05 47.1 °F 48.2 °F 30.1 in Calm   8.1 mph 98% 0 in
23:10 47.3 °F 48.2 °F 30.1 in SSW 4 mph 8.1 mph 98% 0 in
23:15 47.3 °F 48.2 °F 30.1 in South 6 mph 8.1 mph 98% 0 in
23:20 47.3 °F 48.2 °F 30.1 in SW 3.8 mph 8.1 mph 98% 0 in
23:25 47.5 °F 48.2 °F 30.1 in SSW 5.4 mph 7.8 mph 98% 0 in
23:30 47.7 °F 48.2 °F 30.1 in SSW 6.3 mph 6.7 mph 98% 0 in
23:35 47.8 °F 48.2 °F 30.1 in SSW 6 mph 6.3 mph 98% 0 in
23:40 47.8 °F 48.2 °F 30.1 in SW 6.7 mph 8.7 mph 98% 0 in
23:45 48.2 °F 48.2 °F 30.1 in SW 6.3 mph 9.2 mph 98% 0 in
23:50 48.4 °F 48.2 °F 30.1 in SSW 7.2 mph 9.2 mph 98% 0 in
23:55 48.6 °F 48.2 °F 30.1 in SW 7.8 mph 9.4 mph 98% 0 in
Données Historique de Météo Turbie

Mise a jour : 20/05/2018 16:10:12
Généré par Cumulus 1.9.4 (1099)